Regional Weather Roundup
Issued by NWS

Home | Current Version | Previous Version | Text Only | Print | Product List | Glossary On
Versions: 1 2 3 4 5 6 7 8 9 10 11 12 13 14 15 16 17 18 19 20 21 22 23 24 25 26 27 28 29 30 31 32 33 34 35 36 37 38 39 40 41 42 43 44 45 46 47 48 49 50
000
ASUS44 KJAN 290603
RWRMS

MISSISSIPPI HOURLY WEATHER ROUNDUP
NATIONAL WEATHER SERVICE JACKSON MS
100 AM CDT WED JUL 29 2015

NOTE: "FAIR: INDICATES FEW OR NO CLOUDS BELOW 12,000 FEET WITH NO
SIGNIFICANT WEATHER AND/OR OBSTRUCTIONS TO VISIBILITY.

MSZ001>002-007>008-010>013-018>021-025>028-034>036-290700-
NORTHWEST MISSISSIPPI

CITY           SKY/WX    TMP DP  RH WIND       PRES   REMARKS
CLARKSDALE     FAIR      79  79 100 CALM      29.99F
CLEVELAND      FAIR      81  79  93 S3        29.98F HX  90
GREENWOOD      CLEAR     80  77  90 CALM      29.99S FOG
6HR MIN TEMP:  80; 6HR MAX TEMP:  90;

GREENVILLE     CLEAR     82  78  88 S3        29.98F HX  91
6HR MIN TEMP:  81; 6HR MAX TEMP:  94;

OLIVE BRANCH     N/A     79  79 100 CALM      29.98F
OXFORD         FAIR      77  73  88 CALM      30.01F
TUNICA         CLEAR     81  79  94 S5        29.99F
$$

MSZ003>006-009-014>017-022>024-029>033-037>039-290700-
NORTHEAST MISSISSIPPI

CITY           SKY/WX    TMP DP  RH WIND       PRES   REMARKS
COLUMBUS AFB   NOT AVBL
CORINTH        FAIR      79  75  89 NE5       29.98R
GOLDN TRIANGLE CLEAR     79  73  83 CALM      29.99F
STARKVILLE     FAIR      77  73  88 CALM      29.99F FOG
TUPELO         CLEAR     81  78  91 SW5       29.97F
6HR MIN TEMP:  81; 6HR MAX TEMP:  93;

$$

MSZ040-058-290700-
CENTRAL MISSISSIPPI

CITY           SKY/WX    TMP DP  RH WIND       PRES   REMARKS
JACKSON INTL   CLEAR     81  74  79 CALM      30.00F
6HR MIN TEMP:  80; 6HR MAX TEMP:  95;

JACKSON HAWKNS CLEAR     81  73  76 CALM      30.00F
6HR MIN TEMP:  81; 6HR MAX TEMP:  92;

MERIDIAN KEY   CLEAR     76  73  91 SW3       30.00F
6HR MIN TEMP:  76; 6HR MAX TEMP:  86;

MERIDIAN NAS   CLEAR     77  74  90 W5        30.00F
6HR MIN TEMP:  77; 6HR MAX TEMP:  89;

VICKSBURG      CLEAR     76  73  91 CALM      30.00S
6HR MIN TEMP:  76; 6HR MAX TEMP:  90;

$$

MSZ059>079-290700-
SOUTH MISSISSIPPI

CITY           SKY/WX    TMP DP  RH WIND       PRES   REMARKS
BROOKHAVEN       N/A     75  75 100 CALM      30.04S
HATTIESBURG    CLEAR     78  76  93 CALM      30.01S
6HR MIN TEMP:  78; 6HR MAX TEMP:  89;

MCCOMB         CLEAR     77  76  96 CALM      30.02S
6HR MIN TEMP:  76; 6HR MAX TEMP:  91;

NATCHEZ        CLEAR     79  73  83 S3        30.02S
6HR MIN TEMP:  79; 6HR MAX TEMP:  93;

PINE BELT      CLEAR     79  72  78 CALM      30.03S
6HR MIN TEMP:  77; 6HR MAX TEMP:  90;

$$

MSZ080>082-290700-
COASTAL MISSISSIPPI

CITY           SKY/WX    TMP DP  RH WIND       PRES   REMARKS
BILOXI         NOT AVBL
PASCAGOULA     CLEAR     77  76  96 CALM      29.99S
6HR MIN TEMP:  77; 6HR MAX TEMP:  88;

GULFPORT       CLEAR     79  74  84 CALM      29.99S
6HR MIN TEMP:  79; 6HR MAX TEMP:  88;

$$



USA.gov is the U.S. government's official web portal to all federal, state and local government web resources and services.